This is the latest recevied weather packets stored in our database for station/object K0WOI. If no packets are shown the sender has not sent any weather packets the latest 10 day(s).
| Time | Temp. | Humidity | Pressure | Rain* | Wind** | Luminosity | Snow |
|---|---|---|---|---|---|---|---|
| 1777499390 | 14.44° C | 41% | 1017.2 hPa | 0 mm | - | 146 W/m² | - |
| 1777499089 | 15.56° C | 38% | 1017.3 hPa | 0 mm | - | 134 W/m² | - |
| 1777498785 | 15.56° C | 40% | 1017.1 hPa | 0 mm | - | 459 W/m² | - |
| 1777498482 | 14.44° C | 40% | 1017.1 hPa | 0 mm | - | 459 W/m² | - |
| 1777498178 | 14.44° C | 43% | 1017.5 hPa | 0 mm | - | 99 W/m² | - |
| 1777497876 | 14.44° C | 41% | 1017.6 hPa | 0 mm | - | 144 W/m² | - |
| 1777497572 | 14.44° C | 43% | 1017.7 hPa | 0 mm | - | 312 W/m² | - |
| 1777497268 | 14.44° C | 43% | 1017.7 hPa | 0 mm | - | 162 W/m² | - |
| 1777496965 | 15.56° C | 43% | 1017.6 hPa | 0 mm | - | 640 W/m² | - |
| 1777496662 | 15° C | 40% | 1017.6 hPa | 0 mm | - | 634 W/m² | - |
| 1777496358 | 15° C | 40% | 1017.8 hPa | 0 mm | - | 556 W/m² | - |
| 1777496055 | 15.56° C | 41% | 1017.9 hPa | 0 mm | - | 216 W/m² | - |
| 1777495750 | 15.56° C | 42% | 1017.8 hPa | 0 mm | - | 182 W/m² | - |
| 1777495447 | 15° C | 46% | 1017.9 hPa | 0 mm | - | 192 W/m² | - |
| 1777495143 | 15° C | 42% | 1017.7 hPa | 0 mm | - | 170 W/m² | - |
| 1777494840 | 15° C | 45% | 1017.8 hPa | 0 mm | - | 369 W/m² | - |
| 1777494537 | 13.89° C | 45% | 1017.7 hPa | 0 mm | - | 258 W/m² | - |
| 1777494235 | 13.89° C | 45% | 1017.8 hPa | 0 mm | - | 186 W/m² | - |
| 1777493931 | 14.44° C | 43% | 1018.1 hPa | 0 mm | - | 190 W/m² | - |
| 1777493630 | 15.56° C | 42% | 1018.3 hPa | 0 mm | - | 432 W/m² | - |
| 1777493327 | 15.56° C | 39% | 1018.1 hPa | 0 mm | - | 755 W/m² | - |
| 1777493023 | 15° C | 41% | 1017.9 hPa | 0 mm | - | 737 W/m² | - |
| 1777492720 | 15° C | 42% | 1018.1 hPa | 0 mm | - | 757 W/m² | - |
| 1777492419 | 15° C | 49% | 1018.4 hPa | 0 mm | - | 760 W/m² | - |
| 1777492117 | 15° C | 47% | 1018.5 hPa | 0 mm | - | 531 W/m² | - |
* Rain latest hour (hover to see other rain measurements)
** Current wind speed in m/s (hover to see current wind gust speed)